www.pogodaiklimat.ru

Погода и климат >> Архив погоды >> Казахстан >> Караганда


АРХИВ ПОГОДЫ в Караганде

Время (UTC), дата Ветер
(напр.,м/с)
 
Видим.   Явления Облачность Т
(С)
Тd
(С)
f
(%)
Тe
(С)
Тes
(С)
Комфортность P
(гПа)
Po
(гПа)
Тmin
(С)
Tmax
(С)
R
(мм)
R24
(мм)
S
(см)
21 18.06 Ю 3 20 км 8/0
[Ac trans]
+11.3 +3.1 57 +10 +10 холодно 1008.9 944.8
00 19.06 Ю 3 20 км в посл. час ливневой дождь 9/6 600 м
[Cb cap Ac trans]
+12.2 +4.0 57 +11 +11 по сезону 1008.7 944.8
03 19.06 ЮЗ 3 10 км слаб. ливневой дождь 9/9 600 м
[Cb cap]
+13.9 +4.4 53 +13 +14 холодно 1009.2 945.7
06 19.06 СЗ 3 20 км {ливн. осадки} 3/3 1000 м
[Cu hum]
+19.0 +5.5 41 +20 +29 прохладно 1008.1 945.7 +9.9 0.0
09 19.06 СЗ 4 20 км 5/5 1000 м
[Cu hum]
+20.5 +2.9 31 +21 +26 комфорт 1008.5 946.3
12 19.06 З 3 20 км 6/6 1000 м
[Cu med, cong]
+20.2 +3.3 33 +21 +23 комфорт 1009.2 947.0
15 19.06 С 2 20 км 1/1 1000 м
[Sc diur, vesp]
+18.0 +3.4 38 +19 +19 прохладно 1011.1 948.3 +21.5
18 19.06 штиль 0 20 км 4/0
[Ci fib]
+12.0 +6.2 68 +12 +12 холодно 1013.7 949.5 +21.5 0.0
21 19.06 СВ 2 20 км ясно +9.8 +6.0 77 +8 +8 холодно 1014.5 949.7
00 20.06 СВ 1 20 км 3/0
[Ci fib]
+9.5 +6.4 81 +9 +9 прохладно 1015.4 950.6
03 20.06 В 3 20 км 4/0
[Ci fib]
+16.6 +7.2 54 +16 +22 прохладно 1014.4 951.1
06 20.06 В 3 20 км 6/4 1000 м
[Cu hum Ci fib]
+20.5 +5.2 37 +22 +29 комфорт 1013.6 951.2 +9.0
09 20.06 В 2 20 км 6/4 1000 м
[Cu hum Ci sp]
+22.4 +6.8 36 +23 +32 комфорт 1012.4 950.5
12 20.06 В 3 20 км 4/3 1000 м
[Cu hum Ci fib]
+22.9 +6.3 34 +23 +26 комфорт 1011.5 949.7
15 20.06 СВ 4 20 км 3/0
[Ci fib]
+20.4 +7.0 42 +22 +22 комфорт 1012.2 949.9 +23.4
18 20.06 В 2 20 км ясно +14.8 +9.3 70 +15 +15 прохладно 1013.3 949.8 +23.4
21 20.06 В 3 20 км 3/0
[Ci fib]
+14.1 +6.9 62 +13 +13 прохладно 1012.3 948.7
00 21.06 СВ 2 20 км 4/3 1000 м
[Sc Ci fib]
+12.2 +6.5 68 +11 +12 прохладно 1012.4 948.4
03 21.06 ЮВ 1 20 км 9/3 1000 м
[Sc Cs]
+17.6 +9.9 61 +19 +24 по сезону 1010.8 948.0
06 21.06 ЮВ 1 20 км 9/4 1000 м
[Sc Ac cast Cs]
+23.3 +9.4 41 +25 +32 комфорт 1009.1 947.6 +11.8
09 21.06 штиль 0 20 км 9/4 1000 м
[Sc Ac cast Cs]
+25.4 +6.4 30 +25 +32 комфорт 1007.6 946.5
12 21.06 С 2 20 км 9/5 600 м
[Cb cap Ac trans Ci sp]
+24.2 +8.3 36 +25 +26 комфорт 1007.6 946.3
15 21.06 Ю 1 20 км 8/4 1000 м
[Sc Ac trans]
+21.6 +9.7 47 +23 +23 комфорт 1008.3 946.5 +26.5
18 21.06 С 1 20 км 5/0
[Ac trans Ci sp]
+15.5 +11.3 76 +16 +16 по сезону 1009.6 946.5 +26.5
21 21.06 штиль 0 20 км 3/0
[Ci fib]
+13.1 +10.5 84 +13 +13 прохладно 1010.0 946.3
00 22.06 штиль 0 20 км 3/0
[Ci fib]
+12.2 +9.1 81 +12 +12 по сезону 1011.2 947.3
03 22.06 ЮЗ 1 20 км 3/0
[Ci fib]
+20.5 +9.8 50 +23 +31 комфорт 1010.1 948.0
06 22.06 С 4 20 км 9/3 1000 м
[Cu med, cong Ci fib]
+24.1 +8.1 36 +25 +31 комфорт 1009.5 948.1 +10.4
09 22.06 СЗ 6 20 км 8/4 1000 м
[Cu hum Ci sp]
+24.1 +4.2 27 +24 +27 комфорт 1010.0 948.5
12 22.06 З 4 20 км 9/9 600 м
[Cb cap]
+23.5 +3.7 28 +23 +23 комфорт 1009.9 948.3
15 22.06 СЗ 2 20 км {ливн. осадки} 9/6 600 м
[Cb cap Cs]
+19.5 +7.5 46 +21 +21 комфорт 1011.6 949.1 +25.0
18 22.06 С 4 20 км {ливн. осадки} 4/0
[Ac trans]
+15.2 +9.6 69 +14 +14 прохладно 1014.0 950.5 +25.0 0.0
21 22.06 СВ 4 20 км 5/0
[Ci fib]
+11.1 +3.3 59 +9 +9 холодно 1016.2 951.6
00 23.06 С 3 20 км 9/0
[Ac cast Ci fib]
+8.8 +1.7 61 +7 +7 холодно 1018.0 952.7
03 23.06 СВ 2 20 км 6/0
[Cc]
+13.5 +0.2 40 +13 +20 холодно 1018.1 953.9
06 23.06 С 3 20 км 3/0
[Ac As]
+16.2 -0.4 32 +16 +27 очень
холодно
1017.7 954.1 +8.8
09 23.06 СЗ 4 20 км 4/0
[Ac As Ci fib]
+18.4 0.0 29 +18 +26 холодно 1017.2 954.1
12 23.06 СЗ 3 20 км 8/0
[Ac As Ci sp]
+19.0 +0.5 29 +19 +22 холодно 1016.5 953.5
15 23.06 СЗ 2 20 км 8/3 1500 м
[Sc Ac trans Ci fib]
+18.0 +0.4 30 +19 +19 прохладно 1017.0 953.8 +19.6
18 23.06 Ю 2 20 км 9/0
[Ac As Ci fib]
+16.6 +3.5 42 +17 +17 по сезону 1016.8 953.3 +19.6
21 23.06 ЮЗ 1 20 км 10/3 1000 м
[Sc Ac As]
+14.7 +4.9 52 +15 +15 по сезону 1015.9 952.1
00 24.06 Ю 2 20 км в посл. час ливневой дождь 9/9 600 м
[Cb cap]
+14.2 +5.6 56 +14 +14 по сезону 1015.7 951.9
03 24.06 З 4 20 км 10/10 600 м
[Cb cap]
+16.5 +3.9 43 +16 +16 прохладно 1014.8 951.5
06 24.06 З 3 10 км слаб. ливневой дождь 10/10 600 м
[Cb cap]
+15.5 +7.0 57 +15 +15 очень
холодно
1014.6 951.1 +14.2 0.0
09 24.06 ЮЗ 3 20 км {ливн. осадки} 10/10 600 м
[Cb cap]
+14.5 +10.2 75 +14 +14 очень
холодно
1013.3 949.8
12 24.06 СЗ 4 20 км {ливн. осадки} 9/8 600 м
[Cb cap Ac cast]
+22.5 +13.2 56 +25 +26 комфорт 1010.6 949.0
15 24.06 С 1 20 км 9/6 600 м
[Cb cap Ac cast]
+22.3 +15.2 64 +26 +26 жарко 1010.8 949.1 +23.5
18 24.06 С 1 20 км ясно +16.5 +13.9 85 +17 +17 по сезону 1012.9 949.8 +23.5 5
21 24.06 С 1 4000 м дымка ясно +13.8 +12.4 91 +14 +14 по сезону 1013.8 950.1
00 25.06 штиль 0 2000 м дымка 3/0
[Ci fib]
+13.5 +12.2 92 +13 +14 по сезону 1014.5 950.7
03 25.06 С 1 20 км 8/8 600 м
[Sc]
+19.8 +17.1 84 +23 +25 комфорт 1013.8 951.5
06 25.06 С 2 20 км 4/4 1000 м
[Cu hum]
+22.5 +15.5 65 +26 +37 жарко 1013.7 951.8 +13.1
09 25.06 СВ 3 20 км 3/3 1000 м
[Cu med, cong]
+25.5 +15.1 53 +28 +37 жарко 1012.9 951.7
12 25.06 СВ 1 20 км 4/1 1000 м
[Cu hum Ci sp]
+26.6 +13.7 45 +29 +34 жарко 1012.0 951.1
15 25.06 штиль 0 20 км 6/0
[Ac trans Ci sp]
+24.8 +15.6 57 +28 +28 жарко 1012.1 950.8 +27.2

 

Местоположение метеостанции Караганда (Карагандинская область, Казахстан): широта 49.80 долгота 73.15 высота над уровнем моря 553 м.

В архиве по умолчанию представлена погода в Караганде за последнюю неделю. Архивные данные за месяц целиком и за предыдущие месяцы, начиная с января 2011 года, Вы можете получить, выбрав интересующий диапазон дат из раскрывающегося списка и нажав кнопку "Ввод!".


*Определитесь, кто Вы:
робот инопланетянин человек

Внимание! Время в таблицах - всемирное. Для получения местного времени необходимо прибавить поправку, которая равна 6 ч.

Смотрите также архив погоды в соседних городах и на ближайших метеорологических станциях:

Погода в Караганде-ШОС (Карагандинская область, Казахстан) (4 км)
Погода в Корнеевке (Карагандинская область, Казахстан) (11 км)
Погода в Темиртау (Карагандинская область, Казахстан) (33 км)
Погода в Топаре (Карагандинская область, Казахстан) (40 км)
Погода в Осакаровке (Карагандинская область, Казахстан) (94 км)
Погода в Молодежном (Карагандинская область, Казахстан) (107 км)
Погода в Бесобе (Карагандинская область, Казахстан) (108 км)
Погода в Жарыке (Карагандинская область, Казахстан) (108 км)
Погода в Кертинди (Карагандинская область, Казахстан) (114 км)
Погода в Киевке (Карагандинская область, Казахстан) (123 км)

Пояснения к столбцам:

Ветер - указаны скорость ветра в м/с - средняя за 10 мин, порывы в срок и между сроками (в фигурных скобках) и направление, откуда дует ветер: С - северный, СВ - северо-восточный, В - восточный, ЮВ - юго-восточный, Ю - южный, ЮЗ - юго-западный, З - западный, СЗ - северо-западный.
Видимость - горизонтальная дальность видимости в метрах или километрах. При видимости от 1 до 10 км при отсутствии осадков обычно наблюдается дымка, при ухудшении видимости до 1 км и менее - туман. В сухую погоду видимость может ухудшаться дымом, пылью или мглою.
Явления - указаны атмосферные явления, наблюдавшиеся в срок или в последний час перед сроком; фигурными скобками обозначены явления, наблюдавшиеся между сроками (за 1-3 часа до срока); квадратными скобками обозначены град или гололедные отложения с указанием их диаметра в мм.
Облачность - указаны через наклонную черту общая и нижняя облачность в баллах и высота нижней границы облаков в метрах; квадратными скобками обозначены формы облаков: Ci - перистые, Cs - перисто-слоистые, Cc - перисто-кучевые, Ac - высококучевые, As - высокослоистые, Sc - слоисто-кучевые, Ns - слоисто-дождевые, Cu - кучевые, Cb - кучево-дождевые. Подробнее классификацию облаков см. в Атласе облаков (PDF).
T - Температура воздуха - температура, измеренная на высоте 2 м над землей.
Td - Температура точки росы - температура, при понижении до которой содержащийся в воздухе водяной пар достигнет насыщения.
f - Относительная влажность воздуха - влажноcть воздуха, измеренная на высоте 2 м над землей.
Te - Эффективная температура - температура, которую ощущает одетый по сезону человек в тени. Характеристика душности погоды. При расчете учитывается влияние влажности воздуха и скорости ветра на теплоощущения человека.
Tes - Эффективная температура на солнце - температура, которую ощущает человек, с поправкой на солнечный нагрев. Характеристика знойности погоды. Зависит от высоты солнца над горизонтом, облачности и скорости ветра. Ночью, в пасмурную погоду, а также при ветре 12 м/с и более поправка равна нулю.
P - Атмосферное давление - приведенное к уровню моря атмосферное давление.
Po - Атмосферное давление - измеренное на уровне метеостанции атмосферное давление.
Tmin - Минимальная температура - минимум температуры воздуха на высоте 2 м над землей.
Tmax - Максимальная температура - максимум температуры воздуха на высоте 2 м над землей.
R - Количество осадков - Количество выпавших осадков за период времени, мм. При наведении курсора мыши на число - период времени, за который выпало указанное количество осадков.
R24 - Количество осадков - Количество выпавших осадков за 24 часа, мм.
S - Снежный покров - Высота снежного покрова, см. При наведении курсора мыши на число - состояние снежного покрова и степень покрытия местности в баллах.